Social login voor leden:

1. METAR EBOS

METAR EBOS 190020Z 24013KT 9999 SCT007 BKN035 14/12 Q1021 TEMPO BKN009

2. TAF EBOS

TAF EBOS 190020Z 24013KT 9999 SCT007 BKN035 14/12 Q1021 TEMPO BKN009

3. NOTAMS EBOS

Klik hier voor een overzicht van de notams.

Deze pagina promoten

Noordzee Vliegclub - Nieuwpoortsesteenweg 947 8400 Oostende - Tel 059 30 04 79 - Dit e-mailadres wordt beveiligd tegen spambots. JavaScript dient ingeschakeld te zijn om het te bekijken.

 - Copyright 2017